Time,TemperatureF,DewpointF,PressureIn,WindDirection,WindDirectionDegrees,WindSpeedMPH,WindSpeedGustMPH,Humidity,HourlyPrecipIn,Conditions,Clouds,dailyrainin,SoftwareType,DateUTC
2013-03-05 00:08:00,35.1,25.5,29.73,NE,45,2.2,3.1,58,0.00,,,0.00,fowsr,2013-03-04 23:08:00,
2013-03-05 00:38:00,34.9,25.7,29.73,NE,45,2.2,3.1,59,0.00,,,0.00,fowsr,2013-03-04 23:38:00,
2013-03-05 01:08:00,34.5,25.3,29.73,NE,45,3.1,4.5,59,0.00,,,0.00,fowsr,2013-03-05 00:08:00,
2013-03-05 01:38:00,34.2,25.0,29.73,NE,45,4.5,6.0,59,0.00,,,0.00,fowsr,2013-03-05 00:38:00,
2013-03-05 02:08:00,33.1,25.1,29.73,North,0,3.1,4.5,63,0.00,,,0.00,fowsr,2013-03-05 01:08:00,
2013-03-05 02:38:00,32.9,24.6,29.73,NE,45,1.6,3.1,62,0.00,,,0.00,fowsr,2013-03-05 01:38:00,
2013-03-05 03:08:00,32.9,24.4,29.73,SE,135,2.2,3.1,61,0.00,,,0.00,fowsr,2013-03-05 02:08:00,
2013-03-05 03:38:00,32.9,24.4,29.72,NE,45,3.1,4.5,61,0.00,,,0.00,fowsr,2013-03-05 02:38:00,
2013-03-05 04:08:00,32.9,24.6,29.73,NNE,22,1.6,3.1,62,0.00,,,0.00,fowsr,2013-03-05 03:08:00,
2013-03-05 04:38:00,32.5,24.3,29.73,NE,45,3.8,5.4,62,0.00,,,0.00,fowsr,2013-03-05 03:38:00,
2013-03-05 05:08:00,32.2,24.2,29.72,NE,45,3.8,5.4,63,0.00,,,0.00,fowsr,2013-03-05 04:08:00,
2013-03-05 05:38:00,32.0,24.3,29.73,North,0,2.2,3.8,64,0.00,,,0.00,fowsr,2013-03-05 04:38:00,
2013-03-05 06:08:00,32.5,24.8,29.73,North,0,3.1,6.0,64,0.00,,,0.00,fowsr,2013-03-05 05:08:00,
2013-03-05 06:38:00,34.2,25.3,29.73,North,0,3.8,5.4,60,0.00,,,0.00,fowsr,2013-03-05 05:38:00,
2013-03-05 07:08:00,36.3,25.8,29.73,NNE,22,2.2,4.5,55,0.00,,,0.00,fowsr,2013-03-05 06:08:00,
2013-03-05 07:38:00,39.6,27.5,29.73,East,90,3.8,7.6,51,0.00,,,0.00,fowsr,2013-03-05 06:38:00,
2013-03-05 08:08:00,41.4,26.2,29.72,ESE,112,0.7,1.6,43,0.00,,,0.00,fowsr,2013-03-05 07:08:00,
2013-03-05 08:38:00,44.6,23.6,29.73,South,180,3.8,5.4,31,0.00,,,0.00,fowsr,2013-03-05 07:38:00,
2013-03-05 09:08:00,45.0,22.8,29.72,East,90,3.1,5.4,29,0.00,,,0.00,fowsr,2013-03-05 08:08:00,
2013-03-05 09:38:00,46.8,23.1,29.71,East,90,4.5,6.0,27,0.00,,,0.00,fowsr,2013-03-05 08:38:00,
2013-03-05 10:08:00,49.8,24.4,29.70,SE,135,6.0,10.7,25,0.00,,,0.00,fowsr,2013-03-05 09:08:00,
2013-03-05 10:38:00,50.5,21.3,29.70,SE,135,7.6,11.4,20,0.00,,,0.00,fowsr,2013-03-05 09:38:00,
2013-03-05 11:08:00,52.5,20.2,29.69,SE,135,4.5,8.3,17,0.00,,,0.00,fowsr,2013-03-05 10:08:00,
2013-03-05 11:38:00,52.2,16.8,29.68,NE,45,8.3,11.4,14,0.00,,,0.00,fowsr,2013-03-05 10:38:00,
2013-03-05 12:08:00,51.8,14.1,29.65,SE,135,4.5,9.8,12,0.00,,,0.00,fowsr,2013-03-05 11:08:00,
2013-03-05 12:38:00,53.6,14.2,29.64,South,180,6.0,10.7,11,0.00,,,0.00,fowsr,2013-03-05 11:38:00,
2013-03-05 13:08:00,55.0,13.8,29.63,SSE,157,7.6,13.0,10,0.00,,,0.00,fowsr,2013-03-05 12:08:00,
2013-03-05 13:38:00,55.6,17.0,29.61,SE,135,5.4,8.3,12,0.00,,,0.00,fowsr,2013-03-05 12:38:00,
2013-03-05 14:08:00,55.2,13.9,29.60,SE,135,9.2,14.5,10,0.00,,,0.00,fowsr,2013-03-05 13:08:00,
2013-03-05 14:38:00,55.6,18.3,29.59,NE,45,5.4,9.2,13,0.00,,,0.00,fowsr,2013-03-05 13:38:00,
2013-03-05 15:08:00,55.2,15.4,29.58,SE,135,6.9,10.7,11,0.00,,,0.00,fowsr,2013-03-05 14:08:00,
2013-03-05 15:38:00,54.5,14.8,29.58,SW,225,6.0,8.3,11,0.00,,,0.00,fowsr,2013-03-05 14:38:00,
2013-03-05 16:08:00,54.1,15.9,29.58,SSE,157,5.4,6.9,12,0.00,,,0.00,fowsr,2013-03-05 15:08:00,
2013-03-05 16:38:00,51.6,21.3,29.56,East,90,4.5,6.9,19,0.00,,,0.00,fowsr,2013-03-05 15:38:00,
2013-03-05 17:08:00,48.4,25.1,29.57,South,180,3.8,4.5,28,0.00,,,0.00,fowsr,2013-03-05 16:08:00,
2013-03-05 17:38:00,46.6,26.3,29.56,South,180,0.7,3.1,33,0.00,,,0.00,fowsr,2013-03-05 16:38:00,
2013-03-05 18:08:00,45.3,26.2,29.57,SE,135,0.7,1.6,35,0.00,,,0.00,fowsr,2013-03-05 17:08:00,
2013-03-05 18:38:00,44.2,26.7,29.56,East,90,0.0,1.6,38,0.00,,,0.00,fowsr,2013-03-05 17:38:00,
2013-03-05 19:08:00,43.5,26.5,29.57,South,180,2.2,5.4,39,0.00,,,0.00,fowsr,2013-03-05 18:08:00,
2013-03-05 19:38:00,43.5,26.9,29.57,East,90,5.4,7.6,40,0.00,,,0.00,fowsr,2013-03-05 18:38:00,
2013-03-05 20:08:00,43.0,27.3,29.56,East,90,1.6,3.1,42,0.00,,,0.00,fowsr,2013-03-05 19:08:00,
2013-03-05 20:38:00,42.3,28.2,29.55,NE,45,3.1,4.5,46,0.00,,,0.00,fowsr,2013-03-05 19:38:00,
2013-03-05 21:08:00,41.7,29.1,29.55,NE,45,2.2,3.8,50,0.00,,,0.00,fowsr,2013-03-05 20:08:00,
2013-03-05 21:38:00,42.1,29.5,29.54,South,180,5.4,6.0,50,0.00,,,0.00,fowsr,2013-03-05 20:38:00,
2013-03-05 22:08:00,40.8,29.3,29.54,South,180,5.4,7.6,53,0.00,,,0.00,fowsr,2013-03-05 21:08:00,
2013-03-05 22:38:00,40.8,29.6,29.53,SE,135,2.2,3.1,54,0.00,,,0.00,fowsr,2013-03-05 21:38:00,
2013-03-05 23:08:00,40.3,29.5,29.52,NNE,22,2.2,3.1,55,0.00,,,0.00,fowsr,2013-03-05 22:08:00,
2013-03-05 23:38:00,39.9,29.8,29.52,North,0,3.1,5.4,57,0.00,,,0.00,fowsr,2013-03-05 22:38:00,